Voltar ao catálogo

STARLINK-31511

AtivoComunicaçõesVLEO
NORAD 59462·PAYLOAD·🇺🇸 United States

Lançado Apr 10, 2024 de Cape Canaveral Space Force Station

Loading…

Próximas Passagens (próximas 24 horas)

TLE

AtualizadoSource: CelesTrak SupGP

Época: Sep 15, 2026, 02:11 UTC

1 59462C 24068H   26258.09145833 -.00021798  00000+0 -78952-3 0  2582
2 59462  43.0044  45.0405 0001710 272.8819 221.4686 15.27589779    17

Acompanhe STARLINK-31511 em tempo real com AllMySat

Download on the App Store